Orbital Elements at Epoch 2459000.5 (2020-May-31.0) TDB
Reference: JPL 19 (heliocentric ecliptic J2000)
Element | Value | Uncertainty (1-sigma) | Units |
e | .2102748573707221 | 3.4214e-08 | |
a | 2.316517159660791 | 7.1605e-09 | au |
q | 1.829411844316288 | 8.0187e-08 | au |
i | 1.130243758393739 | 3.771e-06 | deg |
node | 106.5477816250198 | 0.00021796 | deg |
peri | 292.5503590521485 | 0.00021824 | deg |
M | 342.5666538110548 | 1.1247e-05 | deg |
tp | 2459062.863425613745 (2020-Aug-01.36342561) | 4.0358e-05 | TDB |
period | 1287.809751359422 3.53 | 5.9711e-06 1.635e-08 | d yr |
n | .279544396693674 | 1.2961e-09 | deg/d |
Q | 2.803622475005294 | 8.6662e-09 | au |
|
| | Orbit Determination Parameters
Additional Information
|